Date String (YYYY-MM-DD hh:mm:ss) UTC,Instrument flags,absolute air pressure of the measurement (hPa),sample flow rate (lpm),inlet stack bypass flow (lpm),air temperature of the measurement (°C),ambient temperature measured by the external sensor (°C),aerosol sample conditioner tube jacket temperature (°C),OPC LED temperature (°C),internal box temperature (°C),relative humidity of the measurement (%),span deviation,mass concentration of particles derived from Lorenz-Mie calculation of OPC scattering (μg/m³),mass concentration of particles derived from Lorenz-Mie calculation of OPC scattering (μg/m³),mass concentration of particles derived from Lorenz-Mie calculation of OPC scattering (μg/m³)
DateTimeUTC,F1_M11,P_M11,Q1_M11,Q2_M11,T1_M11,T2_M11,T3_M11,T4_M11,T5_M11,U1_M11,ZSPAN_M11,X0_M11,X2_M11,X1_M11
2024-03-09 08:00:00,SystemResetWarning,0833.4,5.00,000.00,018.9,019.3,000.0,027.4,021.2,14.5,0000.0,0005.31,0004.21,0004.11
2024-03-09 08:01:00,SystemResetWarning,0833.4,5.00,000.00,019.0,019.1,000.0,027.4,021.0,14.5,0000.0,0005.20,0004.16,0004.07
2024-03-09 08:02:00,SystemResetWarning,0833.3,4.99,000.00,018.9,018.7,000.0,027.3,020.7,14.5,0000.0,0005.19,0004.13,0004.03
2024-03-09 08:03:00,SystemResetWarning,0833.3,5.00,000.00,018.8,018.2,000.0,027.3,020.4,14.5,0000.0,0005.27,0004.12,0004.00
2024-03-09 08:04:00,SystemResetWarning,0833.3,5.00,000.00,018.7,017.8,000.0,027.3,020.1,14.6,0000.0,0005.26,0004.09,0003.96
2024-03-09 08:05:00,SystemResetWarning,0833.4,5.00,000.00,018.6,017.5,000.0,027.2,020.0,14.7,0000.0,0005.22,0004.05,0003.92
2024-03-09 08:06:00,SystemResetWarning,0833.3,5.02,000.00,018.5,017.2,000.0,027.3,020.0,14.8,0000.0,0005.15,0004.03,0003.90
2024-03-09 08:07:00,SystemResetWarning,0833.3,5.00,000.00,018.4,017.0,000.0,027.3,020.0,14.8,0000.0,0005.08,0004.00,0003.89
2024-03-09 08:08:00,SystemResetWarning,0833.3,4.99,000.00,018.4,017.0,000.0,027.3,020.0,14.9,0000.0,0005.09,0004.00,0003.88
2024-03-09 08:09:00,SystemResetWarning,0833.3,5.00,000.00,018.5,017.8,000.0,027.3,020.4,14.8,0000.0,0005.06,0003.98,0003.86
2024-03-09 08:10:00,SystemResetWarning,0833.4,5.01,000.00,018.7,018.8,000.0,027.4,021.0,14.6,0000.0,0005.02,0003.97,0003.85
2024-03-09 08:11:00,SystemResetWarning,0833.4,4.99,000.00,018.9,019.3,000.0,027.4,021.2,14.4,0000.0,0004.97,0003.95,0003.85
2024-03-09 08:12:00,SystemResetWarning,0833.3,4.99,000.00,018.9,018.9,000.0,027.4,020.9,14.3,0000.0,0004.98,0003.95,0003.84
2024-03-09 08:13:00,SystemResetWarning,0833.3,5.00,000.00,018.8,018.6,000.0,027.3,020.6,14.5,0000.0,0005.00,0003.95,0003.83
2024-03-09 08:14:00,SystemResetWarning,0833.3,5.01,000.00,018.8,018.1,000.0,027.3,020.3,14.5,0000.0,0004.93,0003.93,0003.82
2024-03-09 08:15:00,SystemResetWarning,0833.2,5.00,000.00,018.6,017.7,000.0,027.2,020.1,14.6,0000.0,0004.90,0003.91,0003.81
2024-03-09 08:16:00,SystemResetWarning,0833.2,4.99,000.00,018.5,017.4,000.0,027.2,020.0,14.7,0000.0,0004.89,0003.91,0003.81
2024-03-09 08:17:00,SystemResetWarning,0833.2,4.99,000.00,018.5,017.2,000.0,027.3,020.0,14.8,0000.0,0004.87,0003.91,0003.81
2024-03-09 08:18:00,SystemResetWarning,0833.2,5.00,000.00,018.4,017.0,000.0,027.3,020.0,14.8,0000.0,0004.82,0003.89,0003.80
2024-03-09 08:19:00,SystemResetWarning,0833.2,5.02,000.00,018.4,017.2,000.0,027.3,020.1,14.8,0000.0,0004.79,0003.89,0003.81
2024-03-09 08:20:00,SystemResetWarning,0833.3,5.00,000.00,018.6,018.2,000.0,027.4,020.6,14.8,0000.0,0004.80,0003.89,0003.81
2024-03-09 08:21:00,SystemResetWarning,0833.3,5.00,000.00,018.8,019.2,000.0,027.4,021.2,14.6,0000.0,0004.82,0003.90,0003.82
2024-03-09 08:22:00,SystemResetWarning,0833.2,5.00,000.00,019.0,019.3,000.0,027.4,021.1,14.4,0000.0,0004.86,0003.93,0003.84
2024-03-09 08:23:00,SystemResetWarning,0833.2,4.99,000.00,018.9,018.9,000.0,027.3,020.8,14.4,0000.0,0004.90,0003.94,0003.85
2024-03-09 08:24:00,SystemResetWarning,0833.2,5.01,000.00,018.9,018.5,000.0,027.3,020.5,14.5,0000.0,0004.94,0003.96,0003.87
2024-03-09 08:25:00,SystemResetWarning,0833.2,5.01,000.00,018.8,018.1,000.0,027.3,020.3,14.5,0000.0,0005.00,0003.96,0003.88
2024-03-09 08:26:00,SystemResetWarning,0833.2,5.00,000.00,018.7,017.7,000.0,027.2,020.1,14.6,0000.0,0005.15,0003.98,0003.89
2024-03-09 08:27:00,SystemResetWarning,0833.2,5.00,000.00,018.6,017.5,000.0,027.2,020.0,14.7,0000.0,0005.21,0004.00,0003.91
2024-03-09 08:28:00,SystemResetWarning,0833.2,4.99,000.00,018.5,017.2,000.0,027.3,020.0,14.7,0000.0,0005.26,0004.02,0003.93
2024-03-09 08:29:00,SystemResetWarning,0833.2,5.00,000.00,018.5,017.0,000.0,027.3,020.0,14.7,0000.0,0005.35,0004.04,0003.95
2024-03-09 08:30:00,SystemResetWarning,0833.2,5.02,000.00,018.4,017.0,000.0,027.3,020.1,14.7,0000.0,0005.36,0004.04,0003.96
2024-03-09 08:31:00,SystemResetWarning,0833.3,5.00,000.00,018.5,018.0,000.0,027.4,020.5,14.7,0000.0,0005.40,0004.06,0003.97
2024-03-09 08:32:00,SystemResetWarning,0833.3,5.00,000.00,018.8,018.9,000.0,027.4,021.1,14.5,0000.0,0005.47,0004.08,0003.98
2024-03-09 08:33:00,SystemResetWarning,0833.2,5.01,000.00,019.0,019.2,000.0,027.4,021.1,14.3,0000.0,0005.48,0004.08,0003.97
2024-03-09 08:34:00,SystemResetWarning,0833.2,5.00,000.00,018.9,018.9,000.0,027.4,020.8,14.3,0000.0,0005.48,0004.07,0003.97
2024-03-09 08:35:00,SystemResetWarning,0833.1,4.99,000.00,018.8,018.5,000.0,027.3,020.5,14.4,0000.0,0005.43,0004.06,0003.97
2024-03-09 08:36:00,SystemResetWarning,0833.1,5.00,000.00,018.7,018.0,000.0,027.3,020.3,14.4,0000.0,0005.32,0004.06,0003.97
2024-03-09 08:37:00,SystemResetWarning,0833.1,5.00,000.00,018.6,017.7,000.0,027.2,020.0,14.6,0000.0,0005.18,0004.06,0003.97
2024-03-09 08:38:00,SystemResetWarning,0833.1,5.00,000.00,018.5,017.4,000.0,027.3,020.0,14.7,0000.0,0005.17,0004.05,0003.97
2024-03-09 08:39:00,SystemResetWarning,0833.1,5.00,000.00,018.5,017.2,000.0,027.3,020.0,14.7,0000.0,0005.20,0004.06,0003.97
2024-03-09 08:40:00,SystemResetWarning,0833.1,5.00,000.00,018.4,017.0,000.0,027.3,020.0,14.7,0000.0,0005.24,0004.09,0003.98
2024-03-09 08:41:00,SystemResetWarning,0833.2,5.01,000.00,018.4,017.3,000.0,027.3,020.2,14.7,0000.0,0005.30,0004.09,0003.98
2024-03-09 08:42:00,SystemResetWarning,0833.1,5.00,000.00,018.6,018.3,000.0,027.4,020.7,14.5,0000.0,0005.32,0004.08,0003.98
2024-03-09 08:43:00,SystemResetWarning,0833.2,5.01,000.00,018.8,019.1,000.0,027.4,021.1,14.4,0000.0,0005.25,0004.06,0003.97
2024-03-09 08:44:00,SystemResetWarning,0833.1,4.99,000.00,018.9,019.1,000.0,027.4,021.0,14.2,0000.0,0005.18,0004.04,0003.96
2024-03-09 08:45:00,SystemResetWarning,0833.0,4.99,000.00,018.8,018.7,000.0,027.3,020.7,14.2,0000.0,0005.12,0004.03,0003.95
2024-03-09 08:46:00,SystemResetWarning,0833.0,5.00,000.00,018.8,018.3,000.0,027.3,020.4,14.2,0000.0,0005.10,0004.03,0003.95
2024-03-09 08:47:00,SystemResetWarning,0833.0,5.01,000.00,018.7,017.8,000.0,027.2,020.1,14.3,0000.0,0005.11,0004.02,0003.94
2024-03-09 08:48:00,SystemResetWarning,0833.1,5.00,000.00,018.6,017.5,000.0,027.2,020.0,14.4,0000.0,0005.08,0004.00,0003.92
2024-03-09 08:49:00,SystemResetWarning,0833.0,4.99,000.00,018.5,017.3,000.0,027.3,020.0,14.5,0000.0,0005.03,0003.98,0003.90
2024-03-09 08:50:00,SystemResetWarning,0833.1,5.00,000.00,018.4,017.0,000.0,027.3,020.0,14.5,0000.0,0004.97,0003.96,0003.89
2024-03-09 08:51:00,SystemResetWarning,0833.0,5.01,000.00,018.4,017.2,000.0,027.3,020.1,14.5,0000.0,0004.98,0003.92,0003.86
2024-03-09 08:52:00,SystemResetWarning,0833.0,5.00,000.00,018.6,018.1,000.0,027.3,020.6,14.4,0000.0,0004.92,0003.90,0003.84
2024-03-09 08:53:00,SystemResetWarning,0833.2,5.00,000.00,018.8,019.0,000.0,027.4,021.1,14.2,0000.0,0004.83,0003.88,0003.82
2024-03-09 08:54:00,SystemResetWarning,0833.2,4.99,000.00,018.9,019.1,000.0,027.4,021.1,14.1,0000.0,0004.82,0003.88,0003.82
2024-03-09 08:55:00,SystemResetWarning,0833.1,4.98,000.00,018.9,018.8,000.0,027.3,020.7,14.0,0000.0,0004.81,0003.86,0003.80
2024-03-09 08:56:00,SystemResetWarning,0833.2,5.01,000.00,018.8,018.3,000.0,027.3,020.4,14.1,0000.0,0004.75,0003.84,0003.78
2024-03-09 08:57:00,SystemResetWarning,0833.1,5.00,000.00,018.7,017.9,000.0,027.2,020.2,14.2,0000.0,0004.78,0003.82,0003.75
2024-03-09 08:58:00,SystemResetWarning,0833.1,4.99,000.00,018.6,017.5,000.0,027.2,020.0,14.3,0000.0,0004.78,0003.81,0003.74
2024-03-09 08:59:00,SystemResetWarning,0833.1,5.02,000.00,018.5,017.2,000.0,027.3,020.0,14.4,0000.0,0004.86,0003.81,0003.74
